パンスターズ彗星

P/2024 OC2 ( PanSTARRS )

English version
Home page
Updated on November 26, 2024

---------------------------------------------------------------------

・ プロフィール

発見日 2024年7月28日
発見光度 21.8等
発見者 Pan-STARRS 1 telescope (Haleakala)

・ 軌道要素

Epoch 2024 Oct. 17.0 TT = JDT 2460600.5
T 2024 Oct.  9.32755 TT                                 Rudenko
q   0.5928282            (2000.0)            P               Q
n   0.23159920     Peri.  258.53882     +0.81155322     -0.57703955
a   2.6261005      Node   136.61813     +0.57449410     +0.75947816
e   0.7742553      Incl.    7.67128     +0.10647958     +0.30036357
P   4.26
From 41 observations 2024 July 9-Nov. 13, mean residual 0".6.

・ 星図

・ 光度変化

        m1 = 20.0 + 5 logΔ + 10.0 log r

---------------------------------------------------------------------

軌道要素はM.P.E.C. 2024-V192に掲載されたものです。
星図はステラナビゲータ Ver.11 (アストロアーツ) で作成したものです。
光度グラフはComet for Windowsで作成したものです。

---------------------------------------------------------------------

Copyright(C) Seiichi Yoshida (comet@aerith.net). All rights reserved.